Time,TemperatureF,DewpointF,PressureIn,WindDirection,WindDirectionDegrees,WindSpeedMPH,WindSpeedGustMPH,Humidity,HourlyPrecipIn,Conditions,Clouds,dailyrainin,SoftwareType,DateUTC
2013-08-02 00:01:00,81.1,61.8,30.26,North,0,0.0,0.0,52,0.00,CLR,SCT,0.00,WeatherDisplay:10.37,2013-08-02 04:01:00,
2013-08-02 00:02:00,81.1,61.8,30.26,North,0,0.0,0.0,52,0.00,CLR,SCT,0.00,WeatherDisplay:10.37,2013-08-02 04:02:00,
2013-08-02 00:07:00,81.1,61.8,30.26,North,0,0.0,0.0,52,0.00,CLR,SCT,0.00,WeatherDisplay:10.37,2013-08-02 04:07:00,
2013-08-02 00:12:00,81.1,62.4,30.26,North,0,0.0,0.0,53,0.00,CLR,SCT,0.00,WeatherDisplay:10.37,2013-08-02 04:12:00,
2013-08-02 00:15:00,81.1,62.9,30.26,North,0,0.0,0.0,54,0.00,CLR,SCT,0.00,WeatherDisplay:10.37,2013-08-02 04:15:00,
2013-08-02 00:16:00,81.1,62.9,30.26,North,0,0.0,0.0,54,0.00,CLR,SCT,0.00,WeatherDisplay:10.37,2013-08-02 04:16:00,
2013-08-02 00:21:00,81.1,62.9,30.26,North,0,0.0,0.0,54,0.00,CLR,SCT,0.00,WeatherDisplay:10.37,2013-08-02 04:21:00,
2013-08-02 00:26:00,81.1,62.9,30.26,North,0,0.0,0.0,54,0.00,CLR,SCT,0.00,WeatherDisplay:10.37,2013-08-02 04:26:00,
2013-08-02 00:31:00,81.1,63.4,30.26,North,0,0.0,0.0,55,0.00,CLR,SCT,0.00,WeatherDisplay:10.37,2013-08-02 04:31:00,
2013-08-02 00:36:00,81.1,63.4,30.26,North,0,0.0,0.0,55,0.00,CLR,SCT,0.00,WeatherDisplay:10.37,2013-08-02 04:36:00,
2013-08-02 00:41:00,81.0,63.3,30.26,North,0,0.0,0.0,55,0.00,CLR,SCT,0.00,WeatherDisplay:10.37,2013-08-02 04:41:00,
2013-08-02 00:46:00,81.0,63.3,30.26,North,0,0.0,0.0,55,0.00,CLR,SCT,0.00,WeatherDisplay:10.37,2013-08-02 04:46:00,
2013-08-02 00:51:00,80.8,62.6,30.26,North,0,0.0,0.0,54,0.00,CLR,SCT,0.00,WeatherDisplay:10.37,2013-08-02 04:51:00,
2013-08-02 00:56:00,80.8,62.1,30.26,North,0,0.0,0.0,53,0.00,CLR,SCT,0.00,WeatherDisplay:10.37,2013-08-02 04:56:00,
2013-08-02 01:01:00,80.8,62.1,30.26,North,0,0.0,0.0,53,0.00,CLR,SCT,0.00,WeatherDisplay:10.37,2013-08-02 05:01:00,
2013-08-02 01:06:00,80.8,62.6,30.26,North,0,0.0,0.0,54,0.00,CLR,SCT,0.00,WeatherDisplay:10.37,2013-08-02 05:06:00,
2013-08-02 01:11:00,80.8,63.1,30.26,North,0,0.0,0.0,55,0.00,CLR,SCT,0.00,WeatherDisplay:10.37,2013-08-02 05:11:00,
2013-08-02 01:16:00,80.8,62.6,30.26,North,0,0.0,0.0,54,0.00,CLR,SCT,0.00,WeatherDisplay:10.37,2013-08-02 05:16:00,
2013-08-02 01:21:00,80.8,62.1,30.26,North,0,0.0,0.0,53,0.00,CLR,SCT,0.00,WeatherDisplay:10.37,2013-08-02 05:21:00,
2013-08-02 01:26:00,80.8,62.6,30.26,North,0,0.0,0.0,54,0.00,CLR,SCT,0.00,WeatherDisplay:10.37,2013-08-02 05:26:00,
2013-08-02 01:32:00,80.8,63.1,30.26,North,0,0.0,0.0,55,0.00,CLR,SCT,0.00,WeatherDisplay:10.37,2013-08-02 05:32:00,
2013-08-02 01:37:00,80.8,62.1,30.26,North,0,0.0,0.0,53,0.00,CLR,SCT,0.00,WeatherDisplay:10.37,2013-08-02 05:37:00,
2013-08-02 01:42:00,80.8,62.1,30.26,North,0,0.0,0.0,53,0.00,CLR,SCT,0.00,WeatherDisplay:10.37,2013-08-02 05:42:00,
2013-08-02 01:47:00,80.8,62.6,30.26,North,0,0.0,0.0,54,0.00,CLR,SCT,0.00,WeatherDisplay:10.37,2013-08-02 05:47:00,
2013-08-02 01:52:00,80.8,62.6,30.26,North,0,0.0,0.0,54,0.00,CLR,SCT,0.00,WeatherDisplay:10.37,2013-08-02 05:52:00,
2013-08-02 01:57:00,80.6,62.4,30.26,North,0,0.0,0.0,54,0.00,CLR,SCT,0.00,WeatherDisplay:10.37,2013-08-02 05:57:00,
2013-08-02 02:02:00,80.6,61.9,30.26,North,0,0.0,0.0,53,0.00,CLR,SCT,0.00,WeatherDisplay:10.37,2013-08-02 06:02:00,
2013-08-02 02:07:00,80.4,62.2,30.26,North,0,0.0,0.0,54,0.00,CLR,SCT,0.00,WeatherDisplay:10.37,2013-08-02 06:07:00,
2013-08-02 02:12:00,80.6,61.9,30.26,North,0,0.0,0.0,53,0.00,CLR,SCT,0.00,WeatherDisplay:10.37,2013-08-02 06:12:00,
2013-08-02 02:17:00,80.4,62.8,30.26,North,0,0.0,0.0,55,0.00,CLR,SCT,0.00,WeatherDisplay:10.37,2013-08-02 06:17:00,
2013-08-02 02:22:00,80.4,62.8,30.26,North,0,0.0,0.0,55,0.00,CLR,SCT,0.00,WeatherDisplay:10.37,2013-08-02 06:22:00,
2013-08-02 02:27:00,80.6,62.9,30.26,North,0,0.0,0.0,55,0.00,CLR,SCT,0.00,WeatherDisplay:10.37,2013-08-02 06:27:00,
2013-08-02 02:32:00,80.6,62.9,30.26,North,0,0.0,0.0,55,0.00,CLR,SCT,0.00,WeatherDisplay:10.37,2013-08-02 06:32:00,
2013-08-02 02:37:00,80.6,62.9,30.26,North,0,0.0,0.0,55,0.00,CLR,SCT,0.00,WeatherDisplay:10.37,2013-08-02 06:37:00,
2013-08-02 02:42:00,80.6,63.5,30.26,North,0,0.0,0.0,56,0.00,CLR,SCT,0.00,WeatherDisplay:10.37,2013-08-02 06:42:00,
2013-08-02 02:47:00,80.6,62.9,30.26,North,0,0.0,0.0,55,0.00,CLR,SCT,0.00,WeatherDisplay:10.37,2013-08-02 06:47:00,
2013-08-02 02:52:00,80.6,63.5,30.26,North,0,0.0,0.0,56,0.00,CLR,SCT,0.00,WeatherDisplay:10.37,2013-08-02 06:52:00,
2013-08-02 02:57:00,80.6,63.5,30.26,North,0,0.0,0.0,56,0.00,CLR,SCT,0.00,WeatherDisplay:10.37,2013-08-02 06:57:00,
2013-08-02 03:02:00,80.6,63.5,30.26,North,0,0.0,0.0,56,0.00,CLR,SCT,0.00,WeatherDisplay:10.37,2013-08-02 07:02:00,
2013-08-02 03:07:00,80.6,64.0,30.26,North,0,0.0,0.0,57,0.00,CLR,SCT,0.00,WeatherDisplay:10.37,2013-08-02 07:07:00,
2013-08-02 03:12:00,80.6,63.5,30.26,North,0,0.0,0.0,56,0.00,CLR,SCT,0.00,WeatherDisplay:10.37,2013-08-02 07:12:00,
2013-08-02 03:17:00,80.4,63.8,30.26,North,0,0.0,0.0,57,0.00,CLR,SCT,0.00,WeatherDisplay:10.37,2013-08-02 07:17:00,
2013-08-02 03:22:00,80.4,63.3,30.26,North,0,0.0,0.0,56,0.00,CLR,SCT,0.00,WeatherDisplay:10.37,2013-08-02 07:22:00,
2013-08-02 03:27:00,80.4,63.8,30.26,North,0,0.0,0.0,57,0.00,CLR,SCT,0.00,WeatherDisplay:10.37,2013-08-02 07:27:00,
2013-08-02 03:32:00,80.4,64.3,30.26,North,0,0.0,0.0,58,0.00,CLR,SCT,0.00,WeatherDisplay:10.37,2013-08-02 07:32:00,
2013-08-02 03:37:00,80.2,64.1,30.26,North,0,0.0,0.0,58,0.00,CLR,SCT,0.00,WeatherDisplay:10.37,2013-08-02 07:37:00,
2013-08-02 03:42:00,80.2,64.1,30.26,North,0,0.0,0.0,58,0.00,CLR,SCT,0.00,WeatherDisplay:10.37,2013-08-02 07:42:00,
2013-08-02 03:47:00,80.2,64.1,30.26,North,0,0.0,0.0,58,0.00,CLR,SCT,0.00,WeatherDisplay:10.37,2013-08-02 07:47:00,
2013-08-02 03:53:00,80.2,64.1,30.26,North,0,0.0,0.0,58,0.00,CLR,SCT,0.00,WeatherDisplay:10.37,2013-08-02 07:53:00,
2013-08-02 03:57:00,80.2,64.1,30.26,North,0,0.0,0.0,58,0.00,CLR,SCT,0.00,WeatherDisplay:10.37,2013-08-02 07:57:00,
2013-08-02 04:03:00,80.2,64.1,30.26,North,0,0.0,0.0,58,0.00,CLR,SCT,0.00,WeatherDisplay:10.37,2013-08-02 08:03:00,
2013-08-02 04:08:00,80.1,64.0,30.26,North,0,0.0,0.0,58,0.00,CLR,SCT,0.00,WeatherDisplay:10.37,2013-08-02 08:08:00,
2013-08-02 04:13:00,80.1,64.0,30.26,North,0,0.0,0.0,58,0.00,CLR,SCT,0.00,WeatherDisplay:10.37,2013-08-02 08:13:00,
2013-08-02 04:18:00,80.1,64.0,30.26,North,0,0.0,0.0,58,0.00,CLR,SCT,0.00,WeatherDisplay:10.37,2013-08-02 08:18:00,
2013-08-02 04:23:00,80.1,64.4,30.26,North,0,0.0,0.0,59,0.00,CLR,SCT,0.00,WeatherDisplay:10.37,2013-08-02 08:23:00,
2013-08-02 04:28:00,79.9,64.3,30.26,North,0,0.0,0.0,59,0.00,CLR,SCT,0.00,WeatherDisplay:10.37,2013-08-02 08:28:00,
2013-08-02 04:33:00,79.9,64.3,30.26,North,0,0.0,0.0,59,0.00,CLR,SCT,0.00,WeatherDisplay:10.37,2013-08-02 08:33:00,
2013-08-02 04:38:00,79.9,64.8,30.26,North,0,0.0,0.0,60,0.00,CLR,SCT,0.00,WeatherDisplay:10.37,2013-08-02 08:38:00,
2013-08-02 04:43:00,79.7,64.6,30.26,North,0,0.0,0.0,60,0.00,CLR,SCT,0.00,WeatherDisplay:10.37,2013-08-02 08:43:00,
2013-08-02 04:48:00,79.7,64.6,30.26,North,0,0.0,0.0,60,0.00,CLR,SCT,0.00,WeatherDisplay:10.37,2013-08-02 08:48:00,
2013-08-02 04:53:00,79.7,64.6,30.26,North,0,0.0,0.0,60,0.00,CLR,SCT,0.00,WeatherDisplay:10.37,2013-08-02 08:53:00,
2013-08-02 04:58:00,79.7,64.6,30.26,North,0,0.0,0.0,60,0.00,CLR,SCT,0.00,WeatherDisplay:10.37,2013-08-02 08:58:00,
2013-08-02 05:03:00,79.7,64.6,30.26,North,0,0.0,0.0,60,0.00,CLR,SCT,0.00,WeatherDisplay:10.37,2013-08-02 09:03:00,
2013-08-02 05:08:00,79.5,64.4,30.26,North,0,0.0,0.0,60,0.00,CLR,SCT,0.00,WeatherDisplay:10.37,2013-08-02 09:08:00,
2013-08-02 05:13:00,79.5,64.4,30.26,North,0,0.0,0.0,60,0.00,CLR,SCT,0.00,WeatherDisplay:10.37,2013-08-02 09:13:00,
2013-08-02 05:18:00,79.5,64.4,30.26,North,0,0.0,0.0,60,0.00,CLR,SCT,0.00,WeatherDisplay:10.37,2013-08-02 09:18:00,
2013-08-02 05:23:00,79.5,64.4,30.26,North,0,0.0,0.0,60,0.00,CLR,SCT,0.00,WeatherDisplay:10.37,2013-08-02 09:23:00,
2013-08-02 05:28:00,79.5,64.4,30.26,North,0,0.0,0.0,60,0.00,CLR,SCT,0.00,WeatherDisplay:10.37,2013-08-02 09:28:00,
2013-08-02 05:33:00,79.3,64.2,30.26,North,0,0.0,0.0,60,0.00,CLR,SCT,0.00,WeatherDisplay:10.37,2013-08-02 09:33:00,
2013-08-02 05:38:00,79.3,64.2,30.26,North,0,0.0,0.0,60,0.00,CLR,SCT,0.00,WeatherDisplay:10.37,2013-08-02 09:38:00,
2013-08-02 05:43:00,79.3,64.2,30.26,North,0,0.0,0.0,60,0.00,CLR,SCT,0.00,WeatherDisplay:10.37,2013-08-02 09:43:00,
2013-08-02 05:49:00,79.3,64.2,30.26,North,0,0.0,0.0,60,0.00,CLR,SCT,0.00,WeatherDisplay:10.37,2013-08-02 09:49:00,
2013-08-02 05:54:00,79.3,64.7,30.26,North,0,0.0,0.0,61,0.00,CLR,SCT,0.00,WeatherDisplay:10.37,2013-08-02 09:54:00,
2013-08-02 05:59:00,79.3,64.7,30.26,North,0,0.0,0.0,61,0.00,CLR,SCT,0.00,WeatherDisplay:10.37,2013-08-02 09:59:00,
2013-08-02 06:04:00,79.3,64.7,30.26,North,0,0.0,0.0,61,0.00,CLR,SCT,0.00,WeatherDisplay:10.37,2013-08-02 10:04:00,
2013-08-02 06:09:00,79.2,64.6,30.26,North,0,0.0,0.0,61,0.00,CLR,SCT,0.00,WeatherDisplay:10.37,2013-08-02 10:09:00,
2013-08-02 06:14:00,79.2,64.6,30.26,North,0,0.0,0.0,61,0.00,CLR,SCT,0.00,WeatherDisplay:10.37,2013-08-02 10:14:00,
2013-08-02 06:19:00,79.0,64.4,30.26,North,0,0.0,0.0,61,0.00,CLR,SCT,0.00,WeatherDisplay:10.37,2013-08-02 10:19:00,
2013-08-02 06:24:00,79.0,64.4,30.26,North,0,0.0,0.0,61,0.00,CLR,SCT,0.00,WeatherDisplay:10.37,2013-08-02 10:24:00,
2013-08-02 06:29:00,79.0,64.4,30.26,North,0,0.0,0.0,61,0.00,CLR,SCT,0.00,WeatherDisplay:10.37,2013-08-02 10:29:00,
2013-08-02 06:34:00,79.0,64.4,30.26,North,0,0.0,0.0,61,0.00,CLR,SCT,0.00,WeatherDisplay:10.37,2013-08-02 10:34:00,
2013-08-02 06:39:00,79.0,64.4,30.26,North,0,0.0,0.0,61,0.00,CLR,SCT,0.00,WeatherDisplay:10.37,2013-08-02 10:39:00,
2013-08-02 06:44:00,79.0,64.8,30.26,North,0,0.0,0.0,62,0.00,CLR,SCT,0.00,WeatherDisplay:10.37,2013-08-02 10:44:00,
2013-08-02 06:49:00,79.0,64.8,30.26,North,0,0.0,0.0,62,0.00,CLR,SCT,0.00,WeatherDisplay:10.37,2013-08-02 10:49:00,
2013-08-02 06:54:00,79.0,64.8,30.26,North,0,0.0,0.0,62,0.00,CLR,SCT,0.00,WeatherDisplay:10.37,2013-08-02 10:54:00,
2013-08-02 06:59:00,79.0,64.8,30.26,North,0,0.0,0.0,62,0.00,CLR,SCT,0.00,WeatherDisplay:10.37,2013-08-02 10:59:00,
2013-08-02 07:04:00,79.0,64.8,30.26,North,0,0.0,0.0,62,0.00,CLR,SCT,0.00,WeatherDisplay:10.37,2013-08-02 11:04:00,
2013-08-02 07:09:00,78.8,64.7,30.26,North,0,0.0,0.0,62,0.00,CLR,SCT,0.00,WeatherDisplay:10.37,2013-08-02 11:09:00,
2013-08-02 07:14:00,78.8,64.7,30.26,North,0,0.0,0.0,62,0.00,CLR,SCT,0.00,WeatherDisplay:10.37,2013-08-02 11:14:00,
2013-08-02 07:19:00,79.0,64.8,30.26,North,0,0.0,0.0,62,0.00,CLR,SCT,0.00,WeatherDisplay:10.37,2013-08-02 11:19:00,
2013-08-02 07:24:00,79.0,64.8,30.26,North,0,0.0,0.0,62,0.00,CLR,SCT,0.00,WeatherDisplay:10.37,2013-08-02 11:24:00,
2013-08-02 07:29:00,78.8,64.7,30.26,North,0,0.0,0.0,62,0.00,CLR,SCT,0.00,WeatherDisplay:10.37,2013-08-02 11:29:00,
2013-08-02 07:34:00,78.8,64.7,30.26,North,0,0.0,0.0,62,0.00,CLR,SCT,0.00,WeatherDisplay:10.37,2013-08-02 11:34:00,
2013-08-02 07:39:00,79.0,64.8,30.26,North,0,0.0,0.0,62,0.00,CLR,SCT,0.00,WeatherDisplay:10.37,2013-08-02 11:39:00,
2013-08-02 07:44:00,79.2,65.0,30.26,North,0,0.0,0.0,62,0.00,CLR,SCT,0.00,WeatherDisplay:10.37,2013-08-02 11:44:00,
2013-08-02 07:49:00,79.3,64.7,30.26,North,0,0.0,0.0,61,0.00,CLR,SCT,0.00,WeatherDisplay:10.37,2013-08-02 11:49:00,
2013-08-02 07:54:00,79.3,64.7,30.26,North,0,0.0,0.0,61,0.00,CLR,SCT,0.00,WeatherDisplay:10.37,2013-08-02 11:54:00,
2013-08-02 07:59:00,79.5,64.4,30.26,North,0,0.0,0.0,60,0.00,CLR,SCT,0.00,WeatherDisplay:10.37,2013-08-02 11:59:00,
2013-08-02 08:04:00,79.5,64.4,30.26,North,0,0.0,0.0,60,0.00,CLR,SCT,0.00,WeatherDisplay:10.37,2013-08-02 12:04:00,
2013-08-02 08:09:00,79.7,64.6,30.26,North,0,0.0,0.0,60,0.00,CLR,SCT,0.00,WeatherDisplay:10.37,2013-08-02 12:09:00,
2013-08-02 08:14:00,79.9,64.8,30.26,North,0,0.0,0.0,60,0.00,CLR,SCT,0.00,WeatherDisplay:10.37,2013-08-02 12:14:00,
2013-08-02 08:19:00,79.9,64.8,30.26,North,0,0.0,0.0,60,0.00,CLR,SCT,0.00,WeatherDisplay:10.37,2013-08-02 12:19:00,
2013-08-02 08:24:00,80.1,64.9,30.26,North,0,0.0,0.0,60,0.00,CLR,SCT,0.00,WeatherDisplay:10.37,2013-08-02 12:24:00,
2013-08-02 08:30:00,80.2,65.1,30.26,North,0,0.0,0.0,60,0.00,CLR,SCT,0.00,WeatherDisplay:10.37,2013-08-02 12:30:00,
2013-08-02 08:35:00,80.2,65.1,30.26,North,0,0.0,0.0,60,0.00,CLR,SCT,0.00,WeatherDisplay:10.37,2013-08-02 12:35:00,
2013-08-02 08:40:00,80.6,65.4,30.26,North,0,0.0,0.0,60,0.00,CLR,SCT,0.00,WeatherDisplay:10.37,2013-08-02 12:40:00,
2013-08-02 09:07:00,81.0,64.8,30.26,North,0,0.0,0.0,58,0.00,CLR,SCT,0.00,WeatherDisplay:10.37,2013-08-02 13:07:00,
2013-08-02 09:12:00,81.1,65.0,30.26,North,0,0.0,0.0,58,0.00,CLR,SCT,0.00,WeatherDisplay:10.37,2013-08-02 13:12:00,
2013-08-02 09:17:00,81.1,64.5,30.26,North,0,0.0,0.0,57,0.00,CLR,SCT,0.00,WeatherDisplay:10.37,2013-08-02 13:17:00,
2013-08-02 09:22:00,81.3,64.6,30.26,North,0,0.0,0.0,57,0.00,CLR,SCT,0.00,WeatherDisplay:10.37,2013-08-02 13:22:00,
2013-08-02 09:27:00,81.3,64.6,30.26,North,0,0.0,0.0,57,0.00,CLR,SCT,0.00,WeatherDisplay:10.37,2013-08-02 13:27:00,
2013-08-02 09:33:00,81.3,64.1,30.26,North,0,0.0,0.0,56,0.00,CLR,SCT,0.00,WeatherDisplay:10.37,2013-08-02 13:33:00,
2013-08-02 09:38:00,81.3,64.1,30.26,North,0,0.0,0.0,56,0.00,CLR,SCT,0.00,WeatherDisplay:10.37,2013-08-02 13:38:00,
2013-08-02 09:43:00,81.5,63.8,30.26,North,0,0.0,0.0,55,0.00,CLR,SCT,0.00,WeatherDisplay:10.37,2013-08-02 13:43:00,
2013-08-02 09:47:00,81.7,63.9,30.26,North,0,0.0,0.0,55,0.00,CLR,SCT,0.00,WeatherDisplay:10.37,2013-08-02 13:47:00,
2013-08-02 09:53:00,81.7,63.9,30.26,North,0,0.0,0.0,55,0.00,CLR,SCT,0.00,WeatherDisplay:10.37,2013-08-02 13:53:00,
2013-08-02 09:58:00,82.0,64.3,30.26,North,0,0.0,0.0,55,0.00,CLR,SCT,0.00,WeatherDisplay:10.37,2013-08-02 13:58:00,
2013-08-02 10:03:00,82.0,64.3,30.26,North,0,0.0,0.0,55,0.00,CLR,SCT,0.00,WeatherDisplay:10.37,2013-08-02 14:03:00,
2013-08-02 10:08:00,82.2,64.4,30.26,North,0,0.0,0.0,55,0.00,CLR,SCT,0.00,WeatherDisplay:10.37,2013-08-02 14:08:00,
2013-08-02 10:13:00,82.6,64.3,30.26,North,0,0.0,0.0,54,0.00,CLR,SCT,0.00,WeatherDisplay:10.37,2013-08-02 14:13:00,
2013-08-02 10:18:00,82.8,63.9,30.26,North,0,0.0,0.0,53,0.00,CLR,SCT,0.00,WeatherDisplay:10.37,2013-08-02 14:18:00,
2013-08-02 10:23:00,83.1,63.7,30.26,North,0,0.0,0.0,52,0.00,CLR,SCT,0.00,WeatherDisplay:10.37,2013-08-02 14:23:00,
2013-08-02 10:28:00,83.5,63.4,30.26,North,0,0.0,0.0,51,0.00,CLR,SCT,0.00,WeatherDisplay:10.37,2013-08-02 14:28:00,
2013-08-02 10:33:00,83.8,63.8,30.26,North,0,0.0,0.0,51,0.00,CLR,SCT,0.00,WeatherDisplay:10.37,2013-08-02 14:33:00,
2013-08-02 10:38:00,84.0,63.4,30.26,North,0,0.0,0.0,50,0.00,CLR,SCT,0.00,WeatherDisplay:10.37,2013-08-02 14:38:00,
2013-08-02 10:43:00,84.2,63.0,30.26,North,0,0.0,0.0,49,0.00,CLR,SCT,0.00,WeatherDisplay:10.37,2013-08-02 14:43:00,
2013-08-02 10:48:00,84.4,63.1,30.26,North,0,0.0,0.0,49,0.00,CLR,SCT,0.00,WeatherDisplay:10.37,2013-08-02 14:48:00,
2013-08-02 10:53:00,84.6,63.3,30.26,North,0,0.0,0.0,49,0.00,CLR,SCT,0.00,WeatherDisplay:10.37,2013-08-02 14:53:00,
2013-08-02 10:58:00,84.9,63.6,30.26,North,0,0.0,0.0,49,0.00,CLR,SCT,0.00,WeatherDisplay:10.37,2013-08-02 14:58:00,
2013-08-02 11:03:00,85.1,63.8,30.26,North,0,0.0,0.0,49,0.00,CLR,SCT,0.00,WeatherDisplay:10.37,2013-08-02 15:03:00,
2013-08-02 11:08:00,85.3,64.0,30.26,North,0,0.0,0.0,49,0.00,CLR,SCT,0.00,WeatherDisplay:10.37,2013-08-02 15:08:00,
2013-08-02 11:13:00,85.3,64.0,30.26,North,0,0.0,0.0,49,0.00,CLR,SCT,0.00,WeatherDisplay:10.37,2013-08-02 15:13:00,
2013-08-02 11:18:00,85.1,63.2,30.26,North,0,0.0,0.0,48,0.00,CLR,SCT,0.00,WeatherDisplay:10.37,2013-08-02 15:18:00,
2013-08-02 11:23:00,85.1,63.2,30.26,North,0,0.0,0.0,48,0.00,CLR,SCT,0.00,WeatherDisplay:10.37,2013-08-02 15:23:00,
2013-08-02 11:28:00,85.5,62.9,30.26,North,0,0.0,0.0,47,0.00,CLR,SCT,0.00,WeatherDisplay:10.37,2013-08-02 15:28:00,
2013-08-02 11:33:00,85.5,62.9,30.26,North,0,0.0,0.0,47,0.00,CLR,SCT,0.00,WeatherDisplay:10.37,2013-08-02 15:33:00,
2013-08-02 11:38:00,85.6,63.1,30.26,North,0,0.0,0.0,47,0.00,CLR,SCT,0.00,WeatherDisplay:10.37,2013-08-02 15:38:00,
2013-08-02 11:43:00,85.6,63.1,30.26,North,0,0.0,0.0,47,0.00,CLR,SCT,0.00,WeatherDisplay:10.37,2013-08-02 15:43:00,
2013-08-02 11:48:00,85.6,63.1,30.26,North,0,0.0,0.0,47,0.00,CLR,SCT,0.00,WeatherDisplay:10.37,2013-08-02 15:48:00,
2013-08-02 11:53:00,86.0,62.2,30.26,North,0,0.0,0.0,45,0.00,CLR,SCT,0.00,WeatherDisplay:10.37,2013-08-02 15:53:00,
2013-08-02 11:58:00,86.0,62.2,30.26,North,0,0.0,0.0,45,0.00,CLR,SCT,0.00,WeatherDisplay:10.37,2013-08-02 15:58:00,
2013-08-02 12:03:00,86.2,61.7,30.26,North,0,0.0,0.0,44,0.00,CLR,SCT,0.00,WeatherDisplay:10.37,2013-08-02 16:03:00,
2013-08-02 12:08:00,86.5,62.0,30.26,North,0,0.0,0.0,44,0.00,CLR,SCT,0.00,WeatherDisplay:10.37,2013-08-02 16:08:00,
2013-08-02 12:13:00,86.9,61.7,30.26,North,0,0.0,0.0,43,0.00,CLR,SCT,0.00,WeatherDisplay:10.37,2013-08-02 16:13:00,
2013-08-02 12:18:00,86.7,60.2,30.26,North,0,0.0,0.0,41,0.00,CLR,SCT,0.00,WeatherDisplay:10.37,2013-08-02 16:18:00,
2013-08-02 12:23:00,87.1,60.5,30.26,North,0,0.0,0.0,41,0.00,CLR,SCT,0.00,WeatherDisplay:10.37,2013-08-02 16:23:00,
2013-08-02 12:28:00,87.3,60.7,30.26,North,0,0.0,0.0,41,0.00,CLR,SCT,0.00,WeatherDisplay:10.37,2013-08-02 16:28:00,
2013-08-02 12:33:00,87.4,59.4,30.26,North,0,0.0,0.0,39,0.00,CLR,SCT,0.00,WeatherDisplay:10.37,2013-08-02 16:33:00,
2013-08-02 12:38:00,88.0,59.9,30.26,North,0,0.0,0.0,39,0.00,CLR,SCT,0.00,WeatherDisplay:10.37,2013-08-02 16:38:00,
2013-08-02 12:43:00,88.3,60.2,30.26,North,0,0.0,0.0,39,0.00,CLR,SCT,0.00,WeatherDisplay:10.37,2013-08-02 16:43:00,
2013-08-02 12:48:00,88.3,60.2,30.26,North,0,0.0,0.0,39,0.00,CLR,SCT,0.00,WeatherDisplay:10.37,2013-08-02 16:48:00,
2013-08-02 12:53:00,88.3,61.7,30.26,North,0,0.0,0.0,41,0.00,CLR,SCT,0.00,WeatherDisplay:10.37,2013-08-02 16:53:00,
2013-08-02 12:58:00,88.2,61.5,30.26,North,0,0.0,0.0,41,0.00,CLR,SCT,0.00,WeatherDisplay:10.37,2013-08-02 16:58:00,
2013-08-02 13:03:00,87.8,59.8,30.26,North,0,0.0,0.0,39,0.00,CLR,SCT,0.00,WeatherDisplay:10.37,2013-08-02 17:03:00,
2013-08-02 13:08:00,87.6,59.6,30.26,North,0,0.0,0.0,39,0.00,CLR,SCT,0.00,WeatherDisplay:10.37,2013-08-02 17:08:00,
2013-08-02 13:13:00,87.8,59.8,30.26,North,0,0.0,0.0,39,0.00,CLR,SCT,0.00,WeatherDisplay:10.37,2013-08-02 17:13:00,
2013-08-02 13:18:00,87.6,59.6,30.26,North,0,0.0,0.0,39,0.00,CLR,SCT,0.00,WeatherDisplay:10.37,2013-08-02 17:18:00,
2013-08-02 13:23:00,87.6,58.9,30.26,North,0,0.0,0.0,38,0.00,CLR,SCT,0.00,WeatherDisplay:10.37,2013-08-02 17:23:00,
2013-08-02 13:28:00,87.6,58.9,30.26,North,0,0.0,0.0,38,0.00,CLR,SCT,0.00,WeatherDisplay:10.37,2013-08-02 17:28:00,
2013-08-02 13:33:00,87.6,58.1,30.26,North,0,0.0,0.0,37,0.00,CLR,SCT,0.00,WeatherDisplay:10.37,2013-08-02 17:33:00,
2013-08-02 13:38:00,87.8,58.3,30.26,North,0,0.0,0.0,37,0.00,CLR,SCT,0.00,WeatherDisplay:10.37,2013-08-02 17:38:00,
2013-08-02 13:43:00,88.0,59.2,30.26,North,0,0.0,0.0,38,0.00,CLR,SCT,0.00,WeatherDisplay:10.37,2013-08-02 17:43:00,
2013-08-02 13:48:00,88.0,62.7,30.26,North,0,0.0,0.0,43,0.00,CLR,SCT,0.00,WeatherDisplay:10.37,2013-08-02 17:48:00,
2013-08-02 13:53:00,88.0,63.3,30.26,North,0,0.0,0.0,44,0.00,CLR,SCT,0.00,WeatherDisplay:10.37,2013-08-02 17:53:00,
2013-08-02 13:58:00,87.6,64.3,30.26,North,0,0.0,0.0,46,0.00,CLR,SCT,0.00,WeatherDisplay:10.37,2013-08-02 17:58:00,
2013-08-02 14:03:00,87.4,64.1,30.26,North,0,0.0,0.0,46,0.00,CLR,SCT,0.00,WeatherDisplay:10.37,2013-08-02 18:03:00,
2013-08-02 14:08:00,87.1,64.4,30.26,North,0,0.0,0.0,47,0.00,CLR,SCT,0.00,WeatherDisplay:10.37,2013-08-02 18:08:00,
2013-08-02 14:13:00,87.3,64.6,30.26,North,0,0.0,0.0,47,0.00,CLR,SCT,0.00,WeatherDisplay:10.37,2013-08-02 18:13:00,
2013-08-02 14:19:00,87.4,64.7,30.26,North,0,0.0,0.0,47,0.00,CLR,SCT,0.00,WeatherDisplay:10.37,2013-08-02 18:19:00,
2013-08-02 14:23:00,87.4,64.7,30.26,North,0,0.0,0.0,47,0.00,CLR,SCT,0.00,WeatherDisplay:10.37,2013-08-02 18:23:00,
2013-08-02 14:29:00,87.6,64.9,30.26,North,0,0.0,0.0,47,0.00,CLR,SCT,0.00,WeatherDisplay:10.37,2013-08-02 18:29:00,
2013-08-02 14:34:00,87.8,64.4,30.26,North,0,0.0,0.0,46,0.00,CLR,SCT,0.00,WeatherDisplay:10.37,2013-08-02 18:34:00,
2013-08-02 14:39:00,88.0,64.6,30.26,North,0,0.0,0.0,46,0.00,CLR,SCT,0.00,WeatherDisplay:10.37,2013-08-02 18:39:00,
2013-08-02 14:44:00,88.2,64.8,30.26,North,0,0.0,0.0,46,0.00,CLR,SCT,0.00,WeatherDisplay:10.37,2013-08-02 18:44:00,
2013-08-02 14:48:00,88.2,64.8,30.26,North,0,0.0,0.0,46,0.00,CLR,SCT,0.00,WeatherDisplay:10.37,2013-08-02 18:48:00,
2013-08-02 14:54:00,88.3,64.9,30.26,North,0,0.0,0.0,46,0.00,CLR,SCT,0.00,WeatherDisplay:10.37,2013-08-02 18:54:00,
2013-08-02 14:59:00,88.3,64.9,30.26,North,0,0.0,0.0,46,0.00,CLR,SCT,0.00,WeatherDisplay:10.37,2013-08-02 18:59:00,
2013-08-02 15:04:00,88.5,65.1,30.26,North,0,0.0,0.0,46,0.00,CLR,SCT,0.00,WeatherDisplay:10.37,2013-08-02 19:04:00,
2013-08-02 15:09:00,88.5,65.1,30.26,North,0,0.0,0.0,46,0.00,CLR,SCT,0.00,WeatherDisplay:10.37,2013-08-02 19:09:00,
2013-08-02 15:13:00,88.5,65.1,30.26,North,0,0.0,0.0,46,0.00,CLR,SCT,0.00,WeatherDisplay:10.37,2013-08-02 19:13:00,
2013-08-02 15:18:00,88.5,65.1,30.26,North,0,0.0,0.0,46,0.00,CLR,SCT,0.00,WeatherDisplay:10.37,2013-08-02 19:18:00,
2013-08-02 15:24:00,88.5,65.1,30.26,North,0,0.0,0.0,46,0.00,CLR,SCT,0.00,WeatherDisplay:10.37,2013-08-02 19:24:00,
2013-08-02 15:29:00,88.7,65.3,30.26,North,0,0.0,0.0,46,0.00,CLR,SCT,0.00,WeatherDisplay:10.37,2013-08-02 19:29:00,
2013-08-02 15:34:00,88.9,65.4,30.26,North,0,0.0,0.0,46,0.00,CLR,SCT,0.00,WeatherDisplay:10.37,2013-08-02 19:34:00,
2013-08-02 15:39:00,88.9,65.4,30.26,North,0,0.0,0.0,46,0.00,CLR,SCT,0.00,WeatherDisplay:10.37,2013-08-02 19:39:00,
2013-08-02 15:44:00,88.9,65.4,30.26,North,0,0.0,0.0,46,0.00,CLR,SCT,0.00,WeatherDisplay:10.37,2013-08-02 19:44:00,
2013-08-02 15:49:00,89.1,65.0,30.26,North,0,0.0,0.0,45,0.00,CLR,SCT,0.00,WeatherDisplay:10.37,2013-08-02 19:49:00,
2013-08-02 15:54:00,89.1,65.0,30.26,North,0,0.0,0.0,45,0.00,CLR,SCT,0.00,WeatherDisplay:10.37,2013-08-02 19:54:00,
2013-08-02 15:59:00,89.1,65.0,30.26,North,0,0.0,0.0,45,0.00,CLR,SCT,0.00,WeatherDisplay:10.37,2013-08-02 19:59:00,
2013-08-02 16:04:00,89.1,65.6,30.26,North,0,0.0,0.0,46,0.00,CLR,SCT,0.00,WeatherDisplay:10.37,2013-08-02 20:04:00,
2013-08-02 16:09:00,88.7,64.6,30.26,North,0,0.0,0.0,45,0.00,CLR,SCT,0.00,WeatherDisplay:10.37,2013-08-02 20:09:00,
2013-08-02 16:14:00,88.9,64.8,30.26,North,0,0.0,0.0,45,0.00,CLR,SCT,0.00,WeatherDisplay:10.37,2013-08-02 20:14:00,
2013-08-02 16:19:00,89.1,65.0,30.26,North,0,0.0,0.0,45,0.00,CLR,SCT,0.00,WeatherDisplay:10.37,2013-08-02 20:19:00,
2013-08-02 16:24:00,89.1,65.0,30.26,North,0,0.0,0.0,45,0.00,CLR,SCT,0.00,WeatherDisplay:10.37,2013-08-02 20:24:00,
2013-08-02 16:29:00,89.2,65.8,30.26,North,0,0.0,0.0,46,0.00,CLR,SCT,0.00,WeatherDisplay:10.37,2013-08-02 20:29:00,
2013-08-02 16:34:00,89.4,65.9,30.26,North,0,0.0,0.0,46,0.00,CLR,SCT,0.00,WeatherDisplay:10.37,2013-08-02 20:34:00,
2013-08-02 16:39:00,89.6,65.4,30.26,North,0,0.0,0.0,45,0.00,CLR,SCT,0.00,WeatherDisplay:10.37,2013-08-02 20:39:00,
2013-08-02 16:44:00,89.6,65.4,30.26,North,0,0.0,0.0,45,0.00,CLR,SCT,0.00,WeatherDisplay:10.37,2013-08-02 20:44:00,
2013-08-02 16:49:00,89.8,65.6,30.26,North,0,0.0,0.0,45,0.00,CLR,SCT,0.00,WeatherDisplay:10.37,2013-08-02 20:49:00,
2013-08-02 16:54:00,89.6,65.4,30.26,North,0,0.0,0.0,45,0.00,CLR,SCT,0.00,WeatherDisplay:10.37,2013-08-02 20:54:00,
2013-08-02 16:59:00,89.6,65.4,30.26,North,0,0.0,0.0,45,0.00,CLR,SCT,0.00,WeatherDisplay:10.37,2013-08-02 20:59:00,
2013-08-02 17:04:00,89.6,65.4,30.26,North,0,0.0,0.0,45,0.00,CLR,SCT,0.00,WeatherDisplay:10.37,2013-08-02 21:04:00,
2013-08-02 17:09:00,89.6,64.1,30.26,North,0,0.0,0.0,43,0.00,CLR,SCT,0.00,WeatherDisplay:10.37,2013-08-02 21:09:00,
2013-08-02 17:14:00,89.4,65.3,30.26,North,0,0.0,0.0,45,0.00,CLR,SCT,0.00,WeatherDisplay:10.37,2013-08-02 21:14:00,
2013-08-02 17:19:00,88.9,64.8,30.26,North,0,0.0,0.0,45,0.00,CLR,SCT,0.00,WeatherDisplay:10.37,2013-08-02 21:19:00,
2013-08-02 17:24:00,88.7,65.3,30.26,North,0,0.0,0.0,46,0.00,CLR,SCT,0.00,WeatherDisplay:10.37,2013-08-02 21:24:00,
2013-08-02 17:29:00,88.3,64.9,30.26,North,0,0.0,0.0,46,0.00,CLR,SCT,0.00,WeatherDisplay:10.37,2013-08-02 21:29:00,
2013-08-02 17:34:00,88.3,64.9,30.26,North,0,0.0,0.0,46,0.00,CLR,SCT,0.00,WeatherDisplay:10.37,2013-08-02 21:34:00,
2013-08-02 17:39:00,88.0,64.6,30.26,North,0,0.0,0.0,46,0.00,CLR,SCT,0.00,WeatherDisplay:10.37,2013-08-02 21:39:00,
2013-08-02 17:44:00,87.8,64.4,30.26,North,0,0.0,0.0,46,0.00,CLR,SCT,0.00,WeatherDisplay:10.37,2013-08-02 21:44:00,
2013-08-02 17:49:00,87.6,64.3,30.26,North,0,0.0,0.0,46,0.00,CLR,SCT,0.00,WeatherDisplay:10.37,2013-08-02 21:49:00,
2013-08-02 17:54:00,87.4,65.3,30.26,North,0,0.0,0.0,48,0.00,CLR,SCT,0.00,WeatherDisplay:10.37,2013-08-02 21:54:00,
2013-08-02 17:59:00,87.1,65.0,30.26,North,0,0.0,0.0,48,0.00,CLR,SCT,0.00,WeatherDisplay:10.37,2013-08-02 21:59:00,
2013-08-02 18:04:00,86.9,64.8,30.26,North,0,0.0,0.0,48,0.00,CLR,SCT,0.00,WeatherDisplay:10.37,2013-08-02 22:04:00,
2013-08-02 18:09:00,86.7,64.1,30.26,North,0,0.0,0.0,47,0.00,CLR,SCT,0.00,WeatherDisplay:10.37,2013-08-02 22:09:00,
2013-08-02 18:14:00,86.5,64.5,30.26,North,0,0.0,0.0,48,0.00,CLR,SCT,0.00,WeatherDisplay:10.37,2013-08-02 22:14:00,
2013-08-02 18:19:00,86.2,64.2,30.26,North,0,0.0,0.0,48,0.00,CLR,SCT,0.00,WeatherDisplay:10.37,2013-08-02 22:19:00,
2013-08-02 18:24:00,85.1,59.4,30.26,North,0,0.0,0.0,42,0.00,CLR,SCT,0.00,WeatherDisplay:10.37,2013-08-02 22:24:00,
2013-08-02 18:29:00,83.3,57.8,30.26,North,0,0.0,0.0,42,0.00,CLR,SCT,0.00,WeatherDisplay:10.37,2013-08-02 22:29:00,
2013-08-02 18:34:00,82.2,59.4,30.26,North,0,0.0,0.0,46,0.00,CLR,SCT,0.00,WeatherDisplay:10.37,2013-08-02 22:34:00,
2013-08-02 18:39:00,82.2,60.6,30.26,North,0,0.0,0.0,48,0.00,CLR,SCT,0.00,WeatherDisplay:10.37,2013-08-02 22:39:00,
2013-08-02 18:44:00,82.0,61.0,30.26,North,0,0.0,0.0,49,0.00,CLR,SCT,0.00,WeatherDisplay:10.37,2013-08-02 22:44:00,
2013-08-02 18:49:00,82.2,62.3,30.26,North,0,0.0,0.0,51,0.00,CLR,SCT,0.00,WeatherDisplay:10.37,2013-08-02 22:49:00,
2013-08-02 18:54:00,82.2,63.9,30.26,North,0,0.0,0.0,54,0.00,CLR,SCT,0.00,WeatherDisplay:10.37,2013-08-02 22:54:00,
2013-08-02 18:59:00,82.4,64.1,30.26,North,0,0.0,0.0,54,0.00,CLR,SCT,0.00,WeatherDisplay:10.37,2013-08-02 22:59:00,
2013-08-02 19:04:00,82.4,64.6,30.26,North,0,0.0,0.0,55,0.00,CLR,SCT,0.00,WeatherDisplay:10.37,2013-08-02 23:04:00,
2013-08-02 19:09:00,81.7,65.0,30.26,North,0,0.0,0.0,57,0.00,CLR,SCT,0.00,WeatherDisplay:10.37,2013-08-02 23:09:00,
2013-08-02 19:15:00,81.5,65.8,30.26,North,0,0.0,0.0,59,0.00,CLR,SCT,0.00,WeatherDisplay:10.37,2013-08-02 23:15:00,
2013-08-02 19:20:00,81.5,65.8,30.26,North,0,0.0,0.0,59,0.00,CLR,SCT,0.00,WeatherDisplay:10.37,2013-08-02 23:20:00,
2013-08-02 19:25:00,81.5,67.2,30.26,North,0,0.0,0.0,62,0.00,CLR,SCT,0.00,WeatherDisplay:10.37,2013-08-02 23:25:00,
2013-08-02 19:29:00,81.0,65.3,30.26,North,0,0.0,0.0,59,0.00,CLR,SCT,0.00,WeatherDisplay:10.37,2013-08-02 23:29:00,
2013-08-02 19:35:00,80.8,64.1,30.26,North,0,0.0,0.0,57,0.00,CLR,SCT,0.00,WeatherDisplay:10.37,2013-08-02 23:35:00,
2013-08-02 19:40:00,81.0,63.8,30.26,North,0,0.0,0.0,56,0.00,CLR,SCT,0.00,WeatherDisplay:10.37,2013-08-02 23:40:00,
2013-08-02 19:45:00,80.6,62.9,30.26,North,0,0.0,0.0,55,0.00,CLR,SCT,0.00,WeatherDisplay:10.37,2013-08-02 23:45:00,
2013-08-02 19:50:00,80.8,63.6,30.26,North,0,0.0,0.0,56,0.00,CLR,SCT,0.00,WeatherDisplay:10.37,2013-08-02 23:50:00,
2013-08-02 19:55:00,80.2,63.1,30.26,North,0,0.0,0.0,56,0.00,CLR,SCT,0.00,WeatherDisplay:10.37,2013-08-02 23:55:00,
2013-08-02 20:00:00,79.7,63.1,30.26,North,0,0.0,0.0,57,0.00,CLR,SCT,0.00,WeatherDisplay:10.37,2013-08-03 00:00:00,
2013-08-02 20:05:00,79.7,63.1,30.26,North,0,0.0,0.0,57,0.00,CLR,SCT,0.00,WeatherDisplay:10.37,2013-08-03 00:05:00,
2013-08-02 20:10:00,79.5,63.4,30.26,North,0,0.0,0.0,58,0.00,CLR,SCT,0.00,WeatherDisplay:10.37,2013-08-03 00:10:00,
2013-08-02 20:15:00,79.7,63.6,30.26,North,0,0.0,0.0,58,0.00,CLR,SCT,0.00,WeatherDisplay:10.37,2013-08-03 00:15:00,
2013-08-02 20:20:00,79.7,64.1,30.26,North,0,0.0,0.0,59,0.00,CLR,SCT,0.00,WeatherDisplay:10.37,2013-08-03 00:20:00,
2013-08-02 20:25:00,79.5,63.4,30.26,North,0,0.0,0.0,58,0.00,CLR,SCT,0.00,WeatherDisplay:10.37,2013-08-03 00:25:00,
2013-08-02 20:30:00,79.3,63.3,30.26,North,0,0.0,0.0,58,0.00,CLR,SCT,0.00,WeatherDisplay:10.37,2013-08-03 00:30:00,
2013-08-02 20:35:00,79.3,63.8,30.26,North,0,0.0,0.0,59,0.00,CLR,SCT,0.00,WeatherDisplay:10.37,2013-08-03 00:35:00,
2013-08-02 20:40:00,79.9,64.3,30.26,North,0,0.0,0.0,59,0.00,CLR,SCT,0.00,WeatherDisplay:10.37,2013-08-03 00:40:00,
2013-08-02 20:45:00,79.9,64.3,30.26,North,0,0.0,0.0,59,0.00,CLR,SCT,0.00,WeatherDisplay:10.37,2013-08-03 00:45:00,
2013-08-02 20:50:00,79.7,64.1,30.26,North,0,0.0,0.0,59,0.00,CLR,SCT,0.00,WeatherDisplay:10.37,2013-08-03 00:50:00,
2013-08-02 20:55:00,79.5,64.4,30.26,North,0,0.0,0.0,60,0.00,CLR,SCT,0.00,WeatherDisplay:10.37,2013-08-03 00:55:00,
2013-08-02 21:00:00,79.9,64.8,30.26,North,0,0.0,0.0,60,0.00,CLR,SCT,0.00,WeatherDisplay:10.37,2013-08-03 01:00:00,
2013-08-02 21:05:00,80.1,64.9,30.26,North,0,0.0,0.0,60,0.00,CLR,SCT,0.00,WeatherDisplay:10.37,2013-08-03 01:05:00,
2013-08-02 21:10:00,80.1,64.9,30.26,North,0,0.0,0.0,60,0.00,CLR,SCT,0.00,WeatherDisplay:10.37,2013-08-03 01:10:00,
2013-08-02 21:15:00,80.1,64.9,30.26,North,0,0.0,0.0,60,0.00,CLR,SCT,0.00,WeatherDisplay:10.37,2013-08-03 01:15:00,
2013-08-02 21:20:00,79.9,65.2,30.26,North,0,0.0,0.0,61,0.00,CLR,SCT,0.00,WeatherDisplay:10.37,2013-08-03 01:20:00,
2013-08-02 21:25:00,79.9,65.2,30.26,North,0,0.0,0.0,61,0.00,CLR,SCT,0.00,WeatherDisplay:10.37,2013-08-03 01:25:00,
2013-08-02 21:30:00,79.9,65.7,30.26,North,0,0.0,0.0,62,0.00,CLR,SCT,0.00,WeatherDisplay:10.37,2013-08-03 01:30:00,
2013-08-02 21:35:00,80.1,65.9,30.26,North,0,0.0,0.0,62,0.00,CLR,SCT,0.00,WeatherDisplay:10.37,2013-08-03 01:35:00,
2013-08-02 21:40:00,79.9,65.7,30.26,North,0,0.0,0.0,62,0.00,CLR,SCT,0.00,WeatherDisplay:10.37,2013-08-03 01:40:00,
2013-08-02 21:46:00,79.9,65.7,30.26,North,0,0.0,0.0,62,0.00,CLR,SCT,0.00,WeatherDisplay:10.37,2013-08-03 01:46:00,
2013-08-02 21:50:00,79.7,65.5,30.26,North,0,0.0,0.0,62,0.00,CLR,SCT,0.00,WeatherDisplay:10.37,2013-08-03 01:50:00,
2013-08-02 21:56:00,79.7,66.0,30.26,North,0,0.0,0.0,63,0.00,CLR,SCT,0.00,WeatherDisplay:10.37,2013-08-03 01:56:00,
2013-08-02 22:01:00,79.3,66.1,30.26,North,0,0.0,0.0,64,0.00,CLR,SCT,0.00,WeatherDisplay:10.37,2013-08-03 02:01:00,
2013-08-02 22:06:00,79.2,66.4,30.26,North,0,0.0,0.0,65,0.00,CLR,SCT,0.00,WeatherDisplay:10.37,2013-08-03 02:06:00,
2013-08-02 22:11:00,79.0,66.6,30.26,North,0,0.0,0.0,66,0.00,CLR,SCT,0.00,WeatherDisplay:10.37,2013-08-03 02:11:00,
2013-08-02 22:16:00,79.0,66.6,30.26,North,0,0.0,0.0,66,0.00,CLR,SCT,0.00,WeatherDisplay:10.37,2013-08-03 02:16:00,
2013-08-02 22:21:00,79.3,67.0,30.26,North,0,0.0,0.0,66,0.00,CLR,SCT,0.00,WeatherDisplay:10.37,2013-08-03 02:21:00,
2013-08-02 22:25:00,79.5,66.7,30.26,North,0,0.0,0.0,65,0.00,CLR,SCT,0.00,WeatherDisplay:10.37,2013-08-03 02:25:00,
2013-08-02 22:31:00,79.7,66.9,30.26,North,0,0.0,0.0,65,0.00,CLR,SCT,0.00,WeatherDisplay:10.37,2013-08-03 02:31:00,
2013-08-02 22:36:00,79.7,66.9,30.26,North,0,0.0,0.0,65,0.00,CLR,SCT,0.00,WeatherDisplay:10.37,2013-08-03 02:36:00,
2013-08-02 22:41:00,79.3,66.5,30.26,North,0,0.0,0.0,65,0.00,CLR,SCT,0.00,WeatherDisplay:10.37,2013-08-03 02:41:00,
2013-08-02 22:46:00,79.5,67.2,30.26,North,0,0.0,0.0,66,0.00,CLR,SCT,0.00,WeatherDisplay:10.37,2013-08-03 02:46:00,
2013-08-02 22:51:00,79.7,66.9,30.26,North,0,0.0,0.0,65,0.00,CLR,SCT,0.00,WeatherDisplay:10.37,2013-08-03 02:51:00,
2013-08-02 22:56:00,79.7,66.9,30.26,North,0,0.0,0.0,65,0.00,CLR,SCT,0.00,WeatherDisplay:10.37,2013-08-03 02:56:00,
2013-08-02 23:01:00,79.5,66.7,30.26,North,0,0.0,0.0,65,0.00,CLR,SCT,0.00,WeatherDisplay:10.37,2013-08-03 03:01:00,
2013-08-02 23:06:00,79.7,66.9,30.26,North,0,0.0,0.0,65,0.00,CLR,SCT,0.00,WeatherDisplay:10.37,2013-08-03 03:06:00,
2013-08-02 23:11:00,79.7,66.9,30.26,North,0,0.0,0.0,65,0.00,CLR,SCT,0.00,WeatherDisplay:10.37,2013-08-03 03:11:00,
2013-08-02 23:16:00,79.7,66.9,30.26,North,0,0.0,0.0,65,0.00,CLR,SCT,0.00,WeatherDisplay:10.37,2013-08-03 03:16:00,
2013-08-02 23:21:00,79.7,66.9,30.26,North,0,0.0,0.0,65,0.00,CLR,SCT,0.00,WeatherDisplay:10.37,2013-08-03 03:21:00,
2013-08-02 23:26:00,79.7,66.9,30.26,North,0,0.0,0.0,65,0.00,CLR,SCT,0.00,WeatherDisplay:10.37,2013-08-03 03:26:00,
2013-08-02 23:31:00,79.7,66.9,30.26,North,0,0.0,0.0,65,0.00,CLR,SCT,0.00,WeatherDisplay:10.37,2013-08-03 03:31:00,
2013-08-02 23:36:00,79.7,67.3,30.26,North,0,0.0,0.0,66,0.00,CLR,SCT,0.00,WeatherDisplay:10.37,2013-08-03 03:36:00,
2013-08-02 23:41:00,79.7,67.3,30.26,North,0,0.0,0.0,66,0.00,CLR,SCT,0.00,WeatherDisplay:10.37,2013-08-03 03:41:00,
2013-08-02 23:46:00,79.7,67.3,30.26,North,0,0.0,0.0,66,0.00,CLR,SCT,0.00,WeatherDisplay:10.37,2013-08-03 03:46:00,
2013-08-02 23:51:00,79.9,67.9,30.26,North,0,0.0,0.0,67,0.00,CLR,SCT,0.00,WeatherDisplay:10.37,2013-08-03 03:51:00,
2013-08-02 23:57:00,79.7,67.8,30.26,North,0,0.0,0.0,67,0.00,CLR,SCT,0.00,WeatherDisplay:10.37,2013-08-03 03:57:00,